Location: DARK SKY Beskydy - Park tmavé oblohy, www.darkskybeskydy.cz
(49.4926°N, 18.5016°E)
Time: 11:37:26
(UTC+02:00)

BlueWalker 3 - Pass Details

Date: 23 June 2024
Orbit: 480 x 491 km, 53.2° (Epoch: 23 July)

Event Time Altitude Azimuth Distance (km) Brightness Sun altitude
Rises 03:00:13 0° 291° (WNW) 2,538 5.4 -11.4°
Reaches altitude 10° 03:02:34 10° 280° (W) 1,656 4.4 -11.2°
Maximum altitude 03:05:48 28° 220° (SW) 921 2.7 -10.9°
Drops below altitude 10° 03:09:02 10° 160° (SSE) 1,649 4.2 -10.7°
Sets 03:11:22 0° 148° (SSE) 2,526 5.2 -10.4°
